Station CHYV2 - 8638999 - Cape Henry, VA Image indicating link to RSS feed of recent meteorological observations for station CHYV2


Conditions at CHYV2 as of
(8:18 pm EDT on 06/03/2023)
0018 GMT on 06/04/2023:
     

Click on the graph icon in the table below to see a time series plot of the last five days of that observation.

5-day plot - Wind Direction Wind Direction (WDIR): NE ( 40 deg true )
5-day plot - Wind Speed Wind Speed (WSPD): 21.0 kts
5-day plot - Wind Gust Wind Gust (GST): 24.1 kts
5-day plot - Atmospheric Pressure Atmospheric Pressure (PRES):29.95 in
5-day plot - Air Temperature Air Temperature (ATMP): 60.3 °F
5-day plot - Wind Speed at 10 Meters Wind Speed at 10 meters (WSPD10M): 19.4 kts
5-day plot - Wind Speed at 20 Meters Wind Speed at 20 meters (WSPD20M): 19.4 kts
5-day plot -  Wind Speed, Wind Gust and Atmospheric Pressure Combined plot of Wind Speed, Gust, and Air Pressure
NOS Water Level Observation Network Water Level
Previous observations
TIME
(EDT)
5-day plot - Wind Direction
WDIR
 
5-day plot - Wind Speed
WSPD
kts
5-day plot - Wind Gust
GST
kts
5-day plot - Wave Height
WVHT
ft
5-day plot - Dominant Wave Period
DPD
sec
5-day plot - Average Wave Period
APD
sec
5-day plot - Mean Wave Direction
MWD
 
5-day plot - Atmospheric Pressure
PRES
in
5-day plot - Pressure Tendency
PTDY
in
5-day plot - Air Temperature
ATMP
°F
5-day plot - Water Temperature
WTMP
°F
5-day plot - Dew Point
DEWP
°F
5-day plot - Salinity
SAL
psu
5-day plot - Visibility
VIS
nmi
5-day plot - Tide (above MLLW)
TIDE
ft
2023-06-03 08:12 pm NE 22.0 26.0----29.95- 60.3-----
2023-06-03 08:06 pm NE 21.0 24.1----29.95- 60.1-----
2023-06-03 08:00 pm NE 22.0 26.0----29.94+0.03 60.3-----
2023-06-03 07:54 pm NE 22.0 26.0----29.94- 60.4-----
2023-06-03 07:48 pm NE 24.1 26.0----29.94- 60.4-----
2023-06-03 07:42 pm NE 22.0 26.0----29.94- 60.4-----
2023-06-03 07:36 pmNNE 24.1 27.0----29.93- 60.4-----
2023-06-03 07:30 pm NE 22.9 27.0----29.93- 60.6-----
2023-06-03 07:24 pm NE 22.9 26.0----29.93- 60.6-----
2023-06-03 07:00 pm NE 24.1 28.0----29.93+0.02 60.8-----
2023-06-03 06:54 pmNNE 25.1 28.9----29.93- 60.8-----
2023-06-03 06:48 pm NE 25.1 28.0----29.93- 61.0-----
2023-06-03 06:42 pm NE 22.9 28.0----29.93- 60.8-----
2023-06-03 06:36 pm NE 24.1 29.9----29.93- 60.8-----
2023-06-03 06:30 pm NE 27.0 31.1----29.93- 60.6-----
2023-06-03 06:24 pm NE 26.0 28.9----29.93- 60.6-----
2023-06-03 06:18 pm NE 25.1 31.1----29.92- 60.8-----
2023-06-03 06:12 pm NE 25.1 29.9----29.92- 61.0-----
2023-06-03 06:06 pm NE 25.1 31.1----29.92- 61.2-----
2023-06-03 06:00 pm NE 27.0 29.9----29.92+0.02 60.8-----
2023-06-03 05:54 pm NE 27.0 31.1----29.93- 61.0-----
2023-06-03 05:48 pm NE 27.0 29.9----29.92- 61.2-----
2023-06-03 05:42 pm NE 25.1 28.0----29.92- 61.5-----
2023-06-03 05:36 pm NE 26.0 29.9----29.92- 61.2-----
2023-06-03 05:30 pm NE 25.1 29.9----29.92- 61.5-----
2023-06-03 05:24 pm NE 24.1 28.0----29.92- 61.7-----
2023-06-03 05:18 pm NE 24.1 28.9----29.92- 61.7-----
2023-06-03 05:12 pm NE 25.1 29.9----29.92- 61.5-----
2023-06-03 05:06 pm NE 22.9 27.0----29.92- 61.7-----
2023-06-03 05:00 pm NE 25.1 28.9----29.92+0.02 61.7-----
2023-06-03 04:54 pm NE 24.1 28.0----29.91- 61.9-----
2023-06-03 04:48 pm NE 22.9 28.0----29.92- 62.1-----
2023-06-03 04:42 pm NE 22.9 26.0----29.92- 62.1-----
2023-06-03 04:36 pm NE 26.0 28.9----29.91- 61.9-----
2023-06-03 04:30 pm NE 26.0 29.9----29.91- 61.9-----
2023-06-03 04:24 pm NE 25.1 28.9----29.91- 62.2-----
2023-06-03 04:18 pm NE 24.1 26.0----29.91- 62.2-----
2023-06-03 04:12 pm NE 24.1 27.0----29.91- 62.6-----
2023-06-03 04:06 pm NE 22.9 25.1----29.91- 62.6-----
2023-06-03 04:00 pm NE 24.1 26.0----29.91+0.02 62.6-----
2023-06-03 03:54 pm NE 21.0 24.1----29.91- 62.8-----
2023-06-03 03:48 pm NE 22.0 26.0----29.91- 62.6-----
2023-06-03 03:42 pm NE 22.0 27.0----29.91- 62.6-----
2023-06-03 03:36 pm NE 24.1 27.0----29.91- 62.6-----
2023-06-03 03:30 pm-------29.91- 62.8-----
2023-06-03 03:24 pm-------29.91- 63.3-----
2023-06-03 03:18 pm NE 21.0 22.9----29.91- 63.1-----
2023-06-03 03:12 pm NE 21.0 25.1----29.90- 63.5-----
2023-06-03 03:06 pm NE 21.0 25.1----29.90- 63.7-----
2023-06-03 03:00 pm NE 21.0 25.1----29.90+0.01 63.5-----
2023-06-03 02:54 pm NE 20.0 25.1----29.90- 64.0-----
2023-06-03 02:48 pm NE 20.0 22.9----29.90- 64.0-----
2023-06-03 02:42 pm NE 21.0 25.1----29.90- 63.9-----
2023-06-03 02:36 pm NE 21.0 24.1----29.90- 63.9-----
2023-06-03 02:30 pm NE 20.0 22.0----29.90- 64.2-----
2023-06-03 02:24 pm NE 20.0 22.0----29.90- 64.0-----
2023-06-03 02:18 pm NE 19.0 22.9----29.90- 64.4-----
2023-06-03 02:12 pm NE 21.0 24.1----29.89- 64.4-----
2023-06-03 02:06 pm NE 15.0 18.1----29.89- 65.1-----
2023-06-03 02:00 pm NE 15.0 17.1----29.89+0.01 65.1-----
2023-06-03 01:54 pm NE 13.0 15.0----29.89- 64.9-----
2023-06-03 01:48 pm NE 13.0 15.0----29.89- 64.6-----
2023-06-03 01:42 pm NE 15.0 19.0----29.89- 64.6-----
2023-06-03 01:36 pm NE 12.0 15.0----29.90- 64.4-----
2023-06-03 01:30 pm NE 13.0 15.0----29.89- 64.2-----
2023-06-03 01:24 pm NE 12.0 14.0----29.89- 64.4-----
2023-06-03 01:18 pm NE 13.0 15.0----29.89- 64.2-----
2023-06-03 01:12 pm NE 15.0 17.1----29.89- 64.4-----
2023-06-03 01:06 pm NE 11.1 14.0----29.89- 64.8-----
2023-06-03 01:00 pm NE 8.9 12.0----29.89+0.02 64.8-----
2023-06-03 12:54 pm NE 8.0 9.9----29.88- 64.6-----
2023-06-03 12:48 pm NE 7.0 9.9----29.88- 64.4-----
2023-06-03 12:42 pmNNE 7.0 8.9----29.89- 64.2-----
2023-06-03 12:36 pm NE 7.0 8.0----29.89- 64.0-----
2023-06-03 12:30 pmNNE 7.0 8.0----29.89- 64.2-----
2023-06-03 12:24 pm NE 7.0 8.9----29.89- 63.9-----
2023-06-03 12:18 pm NE 8.0 9.9----29.89- 63.9-----
2023-06-03 12:12 pm NE 7.0 8.9----29.88- 63.7-----
2023-06-03 12:06 pmNNE 7.0 8.9----29.88- 64.0-----
2023-06-03 12:00 pm NE 8.9 9.9----29.88+0.02 63.7-----
2023-06-03 11:54 am NE 7.0 8.0----29.89- 63.5-----
2023-06-03 11:48 am NE 8.0 8.9----29.89- 63.3-----
2023-06-03 11:42 am NE 8.0 8.9----29.89- 63.3-----
2023-06-03 11:36 am NE 8.0 8.9----29.89- 63.3-----
2023-06-03 11:30 am NE 8.0 8.9----29.89- 63.1-----
2023-06-03 11:24 am NE 8.0 8.9----29.88- 63.1-----
2023-06-03 11:18 am NE 8.0 9.9----29.88- 63.1-----
2023-06-03 11:12 am NE 8.9 9.9----29.88- 63.0-----
2023-06-03 11:06 amENE 8.0 8.9----29.88- 63.3-----
2023-06-03 11:00 am NE 8.9 12.0----29.88+0.03 63.0-----
2023-06-03 10:54 am NE 9.9 11.1----29.89- 63.0-----
2023-06-03 10:48 am NE 9.9 12.0----29.89- 63.0-----
2023-06-03 10:42 am NE 9.9 11.1----29.88- 63.0-----
2023-06-03 10:36 am NE 8.9 11.1----29.88- 62.8-----
2023-06-03 10:30 am NE 8.9 9.9----29.88- 63.0-----
2023-06-03 10:24 am NE 11.1 12.0----29.88- 62.8-----
2023-06-03 10:18 am NE 8.9 9.9----29.88- 62.8-----
2023-06-03 10:12 am NE 9.9 11.1----29.88- 62.6-----
2023-06-03 10:06 am NE 9.9 11.1----29.88- 62.6-----
2023-06-03 10:00 am NE 8.9 9.9----29.87+0.03 62.4-----
2023-06-03 09:54 am NE 8.9 9.9----29.87- 62.6-----
2023-06-03 09:48 am NE 8.0 9.9----29.87- 62.6-----
2023-06-03 09:42 am NE 8.0 8.9----29.87- 62.6-----
2023-06-03 09:36 amENE 8.9 9.9----29.87- 62.4-----
2023-06-03 09:30 am NE 7.0 8.0----29.87- 62.4-----
2023-06-03 09:24 am NE 8.0 8.9----29.87- 62.2-----
2023-06-03 09:18 am NE 8.0 8.9----29.87- 62.2-----
2023-06-03 09:12 am NE 8.0 8.0----29.87- 62.1-----
2023-06-03 09:06 amENE 6.0 6.0----29.87- 62.2-----
2023-06-03 09:00 amENE 5.1 6.0----29.87+0.04 62.1-----
2023-06-03 08:54 amENE 5.1 6.0----29.87- 61.9-----
2023-06-03 08:48 amENE 5.1 6.0----29.86- 61.7-----
2023-06-03 08:42 amENE 4.1 5.1----29.86- 61.9-----
2023-06-03 08:36 amENE 4.1 5.1----29.86- 61.9-----
2023-06-03 08:30 amENE 5.1 6.0----29.85- 61.7-----
2023-06-03 08:24 amENE 5.1 6.0----29.85- 61.7-----
2023-06-03 08:18 amENE 4.1 5.1----29.86- 61.7-----
2023-06-03 08:12 amENE 4.1 5.1----29.86- 61.7-----
2023-06-03 08:06 amENE 4.1 5.1----29.86- 61.7-----
2023-06-03 08:00 am NE 4.1 5.1----29.86+0.04 61.9-----
2023-06-03 07:54 amENE 4.1 5.1----29.86- 61.7-----
2023-06-03 07:48 am E 4.1 5.1----29.85- 61.5-----
2023-06-03 07:42 amENE 2.9 4.1----29.85- 61.5-----
2023-06-03 07:36 amENE 2.9 4.1----29.85- 61.7-----
2023-06-03 07:30 amENE 1.9 2.9----29.85- 61.5-----
2023-06-03 07:24 am NE 2.9 4.1----29.85- 61.5-----
2023-06-03 07:18 am NE 2.9 2.9----29.85- 61.7-----
2023-06-03 07:12 am NE 1.9 2.9----29.84- 61.7-----
2023-06-03 07:06 amNNE 2.9 2.9----29.84- 61.9-----
2023-06-03 07:00 amNNE 2.9 4.1----29.84+0.02 61.7-----
2023-06-03 06:54 am N 1.9 2.9----29.84- 62.1-----
2023-06-03 06:48 am- 0.0 1.9----29.83- 62.1-----
2023-06-03 06:42 amNNE 1.9 2.9----29.83- 62.1-----
2023-06-03 06:36 am- 0.0 1.9----29.83- 61.9-----
2023-06-03 06:30 am N 1.9 2.9----29.84- 61.9-----
2023-06-03 06:24 am N 1.9 2.9----29.84- 61.5-----
2023-06-03 06:18 amWNW 1.0 1.9----29.83- 61.3-----
2023-06-03 06:12 amWNW 1.0 1.9----29.83- 61.3-----
2023-06-03 06:06 am- 0.0 1.9----29.83- 61.2-----
2023-06-03 06:00 amWSW 1.0 1.9----29.83+0.00 61.2-----
2023-06-03 05:54 am- 0.0 1.0----29.83- 61.0-----
2023-06-03 05:48 am S 1.9 1.9----29.82- 61.0-----
2023-06-03 05:42 am S 1.0 1.9----29.82- 61.0-----
2023-06-03 05:36 am- 0.0 1.0----29.83- 61.0-----
2023-06-03 05:30 am- 0.0 0.0----29.83-------
2023-06-03 05:24 am- 0.0 1.9----29.82-------
2023-06-03 05:18 am SE 1.9 1.9----29.82- 61.0-----
2023-06-03 05:12 amESE 1.9 2.9----29.82- 61.0-----
2023-06-03 05:06 am SE 1.9 2.9----29.82- 61.2-----
2023-06-03 05:00 amESE 2.9 2.9----29.81-0.02 61.2-----
2023-06-03 04:54 am E 1.9 4.1----29.82- 61.2-----
2023-06-03 04:48 am SE 2.9 4.1----29.81- 61.3-----
2023-06-03 04:42 amESE 2.9 4.1----29.82- 61.3-----
2023-06-03 04:36 am SE 2.9 4.1----29.82- 61.5-----
2023-06-03 04:30 amESE 1.9 2.9----29.81- 61.7-----
2023-06-03 04:24 amESE 1.9 2.9----29.82- 61.7-----
2023-06-03 04:18 am E 1.9 2.9----29.82- 61.9-----
2023-06-03 04:12 am SE 1.0 2.9----29.82- 61.9-----
2023-06-03 04:06 am E 2.9 2.9----29.82- 61.9-----
2023-06-03 04:00 am E 1.9 2.9----29.82-0.04 62.1-----
2023-06-03 03:54 am E 2.9 4.1----29.82- 62.1-----
2023-06-03 03:48 amENE 1.9 2.9----29.82- 62.1-----
2023-06-03 03:42 amENE 1.9 1.9----29.82- 62.1-----
2023-06-03 03:36 am E 1.9 2.9----29.82- 62.1-----
2023-06-03 03:30 am E 2.9 5.1----29.82- 62.2-----
2023-06-03 03:24 amENE 4.1 5.1----29.82- 62.2-----
2023-06-03 03:18 amENE 4.1 4.1----29.82- 62.4-----
2023-06-03 03:12 am E 2.9 4.1----29.82- 62.4-----
2023-06-03 03:06 am E 4.1 5.1----29.82- 62.6-----
2023-06-03 03:00 am E 5.1 6.0----29.83-0.04 62.8-----
2023-06-03 02:54 am E 5.1 6.0----29.83- 62.6-----
2023-06-03 02:48 am E 2.9 5.1----29.83- 62.6-----
2023-06-03 02:42 am E 4.1 5.1----29.83- 62.6-----
2023-06-03 02:36 am E 4.1 5.1----29.83- 62.8-----
2023-06-03 02:30 amENE 4.1 5.1----29.83- 62.2-----
2023-06-03 02:24 amENE 2.9 4.1----29.83- 62.2-----
2023-06-03 02:18 am E 2.9 4.1----29.83- 62.1-----
2023-06-03 02:12 amESE 1.9 4.1----29.83- 61.9-----
2023-06-03 02:06 amESE 2.9 4.1----29.83- 61.7-----
2023-06-03 02:00 amESE 4.1 4.1----29.83-0.03 61.9-----
2023-06-03 01:54 am SE 2.9 2.9----29.83- 62.1-----
2023-06-03 01:48 am SE 2.9 2.9----29.84- 62.2-----
2023-06-03 01:42 amESE 2.9 4.1----29.84- 62.6-----
2023-06-03 01:36 amESE 2.9 4.1----29.84- 62.8-----
2023-06-03 01:30 am E 2.9 4.1----29.84- 63.0-----
2023-06-03 01:24 am E 2.9 2.9----29.85- 63.0-----
2023-06-03 01:18 am E 2.9 5.1----29.85- 63.3-----
2023-06-03 01:12 am E 4.1 5.1----29.85- 63.9-----
2023-06-03 01:06 am E 4.1 5.1----29.85- 64.4-----
2023-06-03 01:00 amESE 4.1 5.1----29.85- 64.2-----
2023-06-03 12:54 am SE 4.1 5.1----29.85- 64.2-----
2023-06-03 12:48 am SE 4.1 5.1----29.85- 64.4-----
2023-06-03 12:42 am SE 4.1 5.1----29.85- 64.6-----
2023-06-03 12:36 am SE 5.1 5.1----29.85- 64.8-----
2023-06-03 12:30 am SE 5.1 5.1----29.85- 64.8-----
2023-06-03 12:24 am SE 4.1 5.1----29.85- 64.9-----
2023-06-03 12:18 am SE 5.1 6.0----29.86- 65.1-----
2023-06-03 12:12 am SE 5.1 6.0----29.86- 65.3-----
2023-06-03 12:06 amESE 5.1 5.1----29.86- 65.3-----
2023-06-03 12:00 am SE 5.1 5.1----29.86+0.00 65.1-----
2023-06-02 11:54 pm SE 5.1 5.1----29.86- 64.9-----
2023-06-02 11:48 pm SE 4.1 4.1----29.86- 65.1-----
2023-06-02 11:42 pm SE 4.1 5.1----29.86- 65.5-----
2023-06-02 11:36 pm SE 5.1 5.1----29.87- 65.3-----
2023-06-02 11:30 pm SE 5.1 6.0----29.87- 65.3-----
2023-06-02 11:24 pm SE 4.1 5.1----29.86- 65.1-----
2023-06-02 11:18 pm SE 2.9 4.1----29.87- 64.9-----
2023-06-02 11:12 pmSSE 4.1 5.1----29.87- 64.9-----
2023-06-02 11:06 pmSSE 5.1 5.1----29.87- 65.1-----
2023-06-02 11:00 pmSSE 4.1 5.1----29.87+0.00 65.3-----
2023-06-02 10:54 pm SE 5.1 6.0----29.87- 65.5-----
2023-06-02 10:48 pm SE 4.1 5.1----29.86- 65.7-----
2023-06-02 10:42 pm SE 4.1 5.1----29.87- 65.8-----
2023-06-02 10:36 pm SE 4.1 4.1----29.87- 65.8-----
2023-06-02 10:30 pm SE 4.1 5.1----29.87- 65.7-----
2023-06-02 10:24 pm SE 5.1 5.1----29.87- 65.7-----
2023-06-02 10:18 pm SE 4.1 5.1----29.87- 65.7-----
2023-06-02 10:12 pm SE 4.1 6.0----29.87- 65.7-----
2023-06-02 10:06 pm SE 5.1 6.0----29.87- 65.8-----
2023-06-02 10:00 pm SE 5.1 6.0------ 65.8-----
2023-06-02 09:54 pm SE 5.1 7.0------ 65.8-----
2023-06-02 09:48 pm SE 6.0 7.0----29.86- 66.0-----
2023-06-02 09:42 pmESE 7.0 7.0----29.86- 66.0-----
2023-06-02 09:36 pmESE 6.0 6.0----29.86- 66.0-----
2023-06-02 09:30 pmESE 5.1 7.0----29.86- 66.2-----
2023-06-02 09:24 pmESE 6.0 7.0----29.86- 66.2-----
2023-06-02 09:18 pmESE 6.0 7.0----29.86- 66.2-----
2023-06-02 09:12 pmESE 6.0 7.0----29.86- 66.2-----
2023-06-02 09:06 pm SE 6.0 7.0----29.86- 66.4-----
2023-06-02 09:00 pmESE 6.0 6.0----29.85-0.01 66.4-----
2023-06-02 08:54 pmESE 6.0 6.0----29.85- 66.6-----
2023-06-02 08:48 pmESE 5.1 6.0----29.85- 66.6-----
2023-06-02 08:42 pmESE 5.1 5.1----29.85- 66.6-----
2023-06-02 08:36 pmESE 5.1 5.1----29.86- 66.7-----
2023-06-02 08:30 pmESE 5.1 5.1----29.86- 66.7-----
2023-06-02 08:24 pmESE 5.1 6.0----29.86- 66.7-----
2023-06-02 08:18 pmESE 4.1 5.1----29.86- 66.9-----
2023-06-02 08:12 pmESE 4.1 5.1----29.86- 66.9-----
2023-06-02 08:06 pmESE 4.1 5.1----29.86- 67.1-----
2023-06-02 08:00 pmESE 5.1 6.0----29.86- 67.3-----
2023-06-02 07:54 pmESE 5.1 6.0----29.86- 67.5-----